Regional Weather Roundup
Issued by NWS

Home | Current Version | Previous Version | Text Only | Print | Product List | Glossary Off
Versions: 1 2 3 4 5 6 7 8 9 10 11 12 13 14 15 16 17 18 19 20 21 22 23 24 25 26 27 28 29 30 31 32 33 34 35 36 37 38 39 40 41 42 43 44 45 46 47 48 49 50

586
ASUS44 KLIX 180005
RWRLA
LOUISIANA WEATHER ROUNDUP
NATIONAL WEATHER SERVICE NEW ORLEANS LA
700 PM CDT THU APR 17 2014

NOTE: "FAIR" INDICATES FEW OR NO CLOUDS BELOW 12,000 FEET WITH NO
      SIGNIFICANT WEATHER AND/OR OBSTRUCTIONS TO VISIBILITY.
      SKY/WX - SKY CONDITION AND SIGNIFICANT WEATHER.
      TMP - AIR TEMPERATURE.    DP   - DEWPOINT TEMPERATURE.
      RH  - RELATIVE HUMIDITY.  PRES - PRESSURE.
      HX  - HEAT INDEX.         WCI  - WIND CHILL INDEX.

*  THESE STATIONS ARE NOT NWS OR FAA STATIONS AND ARE NOT UNDER
   NWS QUALITY CONTROL.

LAZ040-048-061>063-065-066-069-180100-
SOUTHEAST LOUISIANA

CITY           SKY/WX    TMP DP  RH WIND       PRES   REMARKS
N.O. AUDUBON     N/A     65  33  30 MISG        N/A
6HR MIN TEMP:  64; 6HR MAX TEMP:  66;

N.O. INTL ARPT CLOUDY    64  59  83 E10       30.14S
6HR MIN TEMP:  64; 6HR MAX TEMP:  66;

N.O. LAKEFRONT CLOUDY    63  59  87 E8        30.16R
6HR MIN TEMP:  62; 6HR MAX TEMP:  64; 6HR PCP:  0.01;

N.O. DOWNTOWN* CLOUDY    63  55  77 NE3       30.15S
6HR MIN TEMP:  63; 6HR MAX TEMP:  64;

SLIDELL        CLOUDY    62  59  90 CALM      30.15R
6HR MIN TEMP:  62; 6HR MAX TEMP:  65; 6HR PCP: TRACE;

BATON ROUGE    CLOUDY    64  57  78 NE8       30.12F
6HR MIN TEMP:  64; 6HR MAX TEMP:  67;

BOOTHVILLE     RAIN      62  61  96 E6        30.14R FOG
6HR MIN TEMP:  63; 6HR MAX TEMP:  67; 6HR PCP:  0.23;

BELLE CHASSE   LGT RAIN  63  59  87 E6        30.14R FOG
6HR MIN TEMP:  63; 6HR MAX TEMP:  65;

BOGALUSA*        N/A     66  57  73 CALM      30.17R
6HR MIN TEMP:  66; 6HR MAX TEMP:  68;

GALLIANO*      DRIZZLE   65  62  91 NE13      30.10F
6HR MIN TEMP:  65; 6HR MAX TEMP:  68;

NEW ROADS*     FAIR      64  57  79 E7        30.14S
6HR MIN TEMP:  64; 6HR MAX TEMP:  65;

GONZALES*      CLOUDY    64  60  89 NE6       30.12F
6HR MIN TEMP:  64; 6HR MAX TEMP:  65;

HAMMOND*       CLOUDY    64  57  77 CALM      30.16F
HOUMA*         CLOUDY    63  61  94 NE8       30.10F HAZE
PORT FOURCHON* CLOUDY    64  63  94 E17G25    30.10S FOG

$$

LAZ041-044-053-054-180100-
SOUTHWEST LOUISIANA

CITY           SKY/WX    TMP DP  RH WIND       PRES   REMARKS
LAKE CHARLES   CLOUDY    63  54  72 NE8       30.12S
6HR MIN TEMP:  61; 6HR MAX TEMP:  65; 6HR PCP: TRACE;

LAFAYETTE      CLOUDY    63  58  83 NE6       30.12S
6HR MIN TEMP:  62; 6HR MAX TEMP:  64;

PATTERSON      CLOUDY    63  59  88 MISG        N/A
6HR MIN TEMP:  63; 6HR MAX TEMP:  64;

SALT POINT       N/A     66  61  84 VRB3      30.08F
6HR MIN TEMP:  65; 6HR MAX TEMP:  67; 6HR PCP:  0.01;

NEW IBERIA     CLOUDY    65  58  78 NE7       30.11F
6HR MIN TEMP:  63; 6HR MAX TEMP:  65;

CHENAULT AIRPK MOCLDY    64  54  68 NE3       30.13S

$$

LAZ027-028-180100-
CENTRAL LOUISIANA

CITY           SKY/WX    TMP DP  RH WIND       PRES   REMARKS
FORT POLK      CLOUDY    60  52  74 NE5       30.14R
6HR MIN TEMP:  58; 6HR MAX TEMP:  61; 6HR PCP:  0.02;

ALEXANDRIA INT CLOUDY    63  54  72 N3        30.14R
6HR MIN TEMP:  61; 6HR MAX TEMP:  64; 6HR PCP: TRACE;

ALEXANDRIA     CLOUDY    65  56  72 CALM      30.15S
6HR MIN TEMP:  60; 6HR MAX TEMP:  68; 6HR PCP:  0.01;


$$

LAZ001-002-180100-
NORTHWEST LOUISIANA

CITY           SKY/WX    TMP DP  RH WIND       PRES   REMARKS
SHREVEPORT     PTCLDY    66  48  52 E7        30.14R
6HR MIN TEMP:  63; 6HR MAX TEMP:  68;

BARKSDALE AFB  PTCLDY    67  48  50 SE6       30.14R
6HR MIN TEMP:  63; 6HR MAX TEMP:  69;

DTN SHREVEPORT CLEAR     65  47  52 E7        30.14R
6HR MIN TEMP:  61; 6HR MAX TEMP:  68;


$$

LAZ014-016-180100-
NORTHEAST LOUISIANA

CITY           SKY/WX    TMP DP  RH WIND       PRES   REMARKS
MONROE         CLOUDY    61  56  83 CALM      30.18R
6HR MIN TEMP:  61; 6HR MAX TEMP:  67; 6HR PCP:  0.02;

TALLULAH       CLOUDY    66  54  65 E9        30.16S
6HR MIN TEMP:  66; 6HR MAX TEMP:  68;


$$




USA.gov is the U.S. government's official web portal to all federal, state and local government web resources and services.